Other Public Products
Issued by NWS Grand Forks, ND

Home | Current Version | Previous Version | Graphics & Text | Print | Product List | Glossary On
Versions: 1 2 3 4 5 6 7 8 9 10 11 12 13 14 15 16 17 18 19 20 21 22 23 24 25 26 27 28 29 30 31 32 33 34 35 36 37 38 39 40 41 42 43 44 45 46 47 48 49 50
000
FPUS83 KFGF 030110
OPUFGF
PRAIRIE TO PINES WEATHER ROUNDUP
NATIONAL WEATHER SERVICE EASTERN NORTH DAKOTA/GRAND FORKS ND
800 PM CDT MON MAY 02 2016

 **SATELLITE DATA USED TO AUGMENT SKY COVER AT AUTOMATED STATIONS**
 *****  WEATHER ACROSS EASTERN NORTH DAKOTA  *****

CITY           SKY/WX    TMP DP  RH WIND       PRES   REMARKS
GRAND FORKS    PTCLDY    67  31  26 SW6       29.94S
GRAND FORKS AF NOT AVBL
GRAND CITY NWS NOT AVBL
BUXTON         NOT AVBL
DEVILS LAKE    CLEAR     63  33  32 SW6       29.99S
FARGO          PTCLDY    66  33  29 W13       29.96R
WAHPETON ARPT  PTCLDY    64  27  24 W5        29.97S
$$

 *****  WEATHER ACROSS CENTRAL AND WESTERN NORTH DAKOTA  *****

CITY           SKY/WX    TMP DP  RH WIND       PRES   REMARKS
JAMESTOWN      CLEAR     58  38  47 S8        30.00R
BISMARCK       CLEAR     62  42  47 E7        29.98R
MINOT          CLEAR     69  34  27 E6        29.97S
MINOT AFB      NOT AVBL
GARRISON         N/A     65  36  34 NE7       29.98S
WILLISTON      SUNNY     71  24  17 N10       29.99S
DICKINSON      CLEAR     62  32  32 NE12      29.99R
HETTINGER      CLEAR     63  32  31 N13       30.01R
$$

 *****  OTHER OBSERVATIONS NORTHEAST NORTH DAKOTA  *****

CITY           SKY/WX    TMP DP  RH WIND       PRES   REMARKS
WALHALLA       NOT AVBL
LANGDON        FAIR      64  34  32 W9        29.97S
CAVALIER       NOT AVBL
GRAFTON        NOT AVBL
CANDO          NOT AVBL
FORT TOTTEN      N/A     64  33  31 W2        29.95S
ROLLA          NOT AVBL
RUGBY          NOT AVBL
 ***** THE ABOVE OBSERVATIONS ARE NON NWS ARE NOT QUALITY
        CONTROLLED AND MAY MIS-REPORT RAIN FOR SNOW...
$$

 *****  OTHER OBSERVATIONS SOUTHEAST NORTH DAKOTA *****

CITY           SKY/WX    TMP DP  RH WIND       PRES   REMARKS
COOPERSTOWN    NOT AVBL
VALLEY CITY    NOT AVBL
OAKES          NOT AVBL
GWINNER        NOT AVBL
SHEYENNE NWR     N/A     64  37  36 NW5       29.95S
BUFFALO        NOT AVBL
WYNDMERE         N/A     66  36  32 NW8         N/A
 ***** THE ABOVE OBSERVATIONS ARE NON NWS ARE NOT QUALITY
       CONTROLLED AND MAY MIS-REPORT RAIN FOR SNOW...
$$

  *****  WEATHER ACROSS NORTHERN MINNESOTA  *****

CITY           SKY/WX    TMP DP  RH WIND       PRES   REMARKS
FLAG ISLAND    MOCLDY    59  30  33 SE3       29.92S
WARROAD        PTCLDY    57  41  54 SE3       29.94F
ROSEAU         CLEAR     66  28  24 CALM      29.94S
HALLOCK        PTCLDY    68  25  19 W5        29.93S
THF RVR FALLS  CLEAR     66  25  20 CALM      29.96S
HALSTAD        NOT AVBL
FOSSTON        MOCLDY    64  27  24 W7        29.96S
BAUDETTE       CLEAR     61  29  29 N3        29.94F
WASKISH        CLEAR     63  30  29 CALM      29.94F
CROOKSTON      CLEAR     66  28  24 CALM      29.95S
$$
  *****  WEATHER ACROSS CENTRAL AND WEST MINNESOTA  *****

CITY           SKY/WX    TMP DP  RH WIND       PRES   REMARKS
BEMIDJI        CLEAR     63  27  25 W3        29.95S
PARK RAPIDS    CLEAR     62  31  31 SW8       29.96S
WADENA         CLEAR     63  28  27 W3        29.98S
DETROIT LAKES  CLEAR     63  30  29 SW3       29.99S
MOORHEAD       CLEAR     66  32  28 W8        29.97S
FERGUS FALLS   CLEAR     63  34  34 S5        29.95S
ELBOW LAKE     FAIR      63  31  29 CALM      29.99S
MORRIS MN      PTCLDY    64  32  29 CALM      29.98R
STAPLES        CLEAR     61  28  29 SW3       29.98S
WHEATON        CLEAR     66  34  30 CALM      29.99R
$$
  *****  WEATHER ELSEWHERE ACROSS MINNESOTA  *****

CITY           SKY/WX    TMP DP  RH WIND       PRES   REMARKS
DULUTH         PTCLDY    59  30  33 S5        29.97S
INTRNTL FALLS  CLEAR     62  26  25 NW6       29.93S
ELY            PTCLDY    63  27  25 W6        29.94F
CLOQUET        CLEAR     61  27  27 W3        29.97S
BRAINERD       CLEAR     59  31  34 S6        29.98S
HIBBING        PTCLDY    61  28  28 VRB3      29.95S
ALEXANDRIA     PTCLDY    60  30  32 S7        30.00R
SAINT CLOUD    CLOUDY    60  36  40 CALM      29.99S
MINNEAPOLIS    PTCLDY    64  27  24 W7        30.00S
$$

  *****  WEATHER ACROSS SOUTH DAKOTA  *****

CITY           SKY/WX    TMP DP  RH WIND       PRES   REMARKS
SIOUX FALLS    MOCLDY    57  39  51 S9        30.01S
BROOKINGS      CLEAR     59  36  42 SW7       29.99S
WATERTOWN      PTCLDY    60  36  40 W7        29.98S
HURON          CLOUDY    57  43  59 W7        30.00R
SISSETON         N/A     63  34  33 N8        29.97R
ABERDEEN       CLEAR     61  38  42 CALM      30.00R
MITCHELL       PTCLDY    55  46  71 SW6       30.01R
PIERRE         CLOUDY    54  43  66 NW7       29.98R
MOBRIDGE       PTCLDY    63  44  50 N3        29.96R
RAPID CITY     LGT RAIN  59  38  45 NW16G26   29.97F
$$

  *****  SOME WEATHER IN NEARBY STATES *****

CITY           SKY/WX    TMP DP  RH WIND       PRES   REMARKS
GLASGOW MT     SUNNY     74  38  27 NW12      30.00S
GREAT FALLS MT SUNNY     70  27  20 CALM      30.09F
CHEYENNE WY    CLEAR     54  20  26 NW18G28   30.11F
SCOTTSBLUFF NE CLOUDY    61  31  32 N13       30.01S
OMAHA NE       PTCLDY    61  38  42 CALM      30.04S
DES MOINES IA  PTCLDY    57  42  57 SE6       30.05R
DAVENPORT IA   CLOUDY    56  43  61 CALM      30.04R
CHICAGO IL     PTCLDY    52  31  44 NE7       30.01S
EAU CLAIRE WI  MOCLDY    60  35  39 SW3       30.00R
LA CROSSE WI   PTCLDY    61  36  39 SW3       30.01R
$$

  *****  SOME NATIONAL WEATHER *****

CITY           SKY/WX    TMP DP  RH WIND       PRES   REMARKS
LA GUARDIA NY  MOCLDY    58  50  75 S6        29.91F
RALEIGH NC     MOCLDY    69  65  86 S9        29.92R
ATLANTA GA     CLOUDY    75  63  66 SW9       29.94R
NEW ORLEANS LA CLOUDY    76  70  82 NW3       29.91R
OKLAHOMA CITY  MOCLDY    59  42  53 N7        30.10S
ALBUQUERQUE NM PTCLDY    61  27  27 W3        30.13F
SALT LAKE CITY FAIR      67  28  23 N12       30.15S
LOS ANGELES CA FAIR      62  54  74 W17       29.95F
BOISE ID       FAIR      73  23  15 SE3       30.07S
SEATTLE WA     FAIR      86  44  23 W7        29.89F
$$

*** WEATHER ACROSS MANITOBA...SASKATCHEWAN AND ONTARIO ***
                ***ONTARIO***

CITY           SKY/WX    TMP DP  RH WIND       PRES   REMARKS
GERALDTON      CLOUDY    57  28  33 SW7       29.88F
THUNDER BAY    PTCLDY    55  30  38 W9        29.94S
SIOUX LOOKOUT  MOCLDY    61  30  31 W6        29.88F
TORONTO        MOCLDY    48  37  66 S3        29.99S
BIG TROUT LK   MOCLDY    54  37  54 W2        29.67F
PICKLE LAKE    MOCLDY    59  30  33 SW9       29.78F
DRYDEN         CLEAR     61  28  29 W10       29.90F
KENORA         CLOUDY    59  25  27 S5        29.92F
$$
                *** MANITOBA***

CITY           SKY/WX    TMP DP  RH WIND       PRES   REMARKS
BRANDON        CLOUDY    68  39  34 NW7       29.94F
DAUPHIN        CLEAR     64  41  42 E8        29.91S
ISLAND LAKE    PTCLDY    59  37  44 W15G22    29.71S
PILOT MOUND      N/A     64  30  27 W7          N/A
THE PAS        PTCLDY    61  30  31 N14G22    29.89R
THOMPSON       PTCLDY    57  30  35 N24G38    29.84R
WINNIPEG       CLOUDY    66  36  32 NW5       29.92S
LYNN LAKE      SUNNY     55  27  33 NW16G29   29.95R
CHURCHILL      LGT RAIN  34  32  93 NW21G30   29.78R WCI  22
GILLAM         PTCLDY    50  34  53 N20G26    29.74R
$$
                ***SASKATCHEWAN***

CITY           SKY/WX    TMP DP  RH WIND       PRES   REMARKS
ESTEVAN        PTSUNNY   68  34  28 N7        29.97F
KINDERSLEY     MOSUNNY   77  36  22 N6        30.00F
LLOYDMINSTER   MOSUNNY   79  37  22 SW2       29.99F
PRINCE ALBERT  PTSUNNY   77  36  22 N8        29.94R
REGINA         PTSUNNY   70  30  23 NE9       29.99S
YORKTON        SUNNY     70  32  24 NW5       29.95S   C1F1C2F2C3F3C4F4C5F5C6F6C7F7C8F8C9F9CaFaCbFbCcFcCdFdCe!



USA.gov is the U.S. government's official web portal to all federal, state and local government web resources and services.